• In Romania
  • List of Countries
  • For 7 days
  • Water Temperature
  • Satellite Maps
  • Weather Map
  • Weather Widgets
  • user-avatar
    Login

    Hourly Weather Namibe

    Today, 28 March, Tuesday

    Time Temperature Precipitation Wind Pressure Humidity
    00:00 +30°C° 0.5 mm 2 mps 758 mmHg 69%
    01:00 +30°C° 0.5 mm 1 mps 758 mmHg 68%
    02:00 +30°C° 0 mm 1 mps 757 mmHg 69%
    03:00 +30°C° 0 mm 1 mps 757 mmHg 70%
    04:00 +30°C° 0 mm 1 mps 757 mmHg 71%
    05:00 +30°C° 0 mm 1 mps 757 mmHg 70%
    06:00 +30°C° 0 mm 1 mps 757 mmHg 70%
    07:00 +30°C° 0 mm 1 mps 757 mmHg 69%
    08:00 +32°C° 0 mm 1 mps 757 mmHg 63%
    09:00 +33°C° 0 mm 1 mps 758 mmHg 57%
    10:00 +35°C° 0 mm 1 mps 758 mmHg 51%
    11:00 +37°C° 0 mm 2 mps 757 mmHg 47%
    12:00 +38°C° 0 mm 3 mps 757 mmHg 43%
    13:00 +40°C° 0 mm 4 mps 756 mmHg 40%
    14:00 +40°C° 0 mm 5 mps 755 mmHg 43%
    15:00 +39°C° 0 mm 5 mps 755 mmHg 46%
    16:00 +38°C° 0 mm 6 mps 755 mmHg 49%
    17:00 +36°C° 0.2 mm 5 mps 755 mmHg 55%
    18:00 +34°C° 0.2 mm 4 mps 756 mmHg 62%
    19:00 +32°C° 0.2 mm 4 mps 756 mmHg 69%
    20:00 +31°C° 0.1 mm 3 mps 757 mmHg 69%
    21:00 +31°C° 0.1 mm 3 mps 757 mmHg 70%
    22:00 +30°C° 0.1 mm 2 mps 758 mmHg 70%
    23:00 +30°C° 0 mm 2 mps 757 mmHg 70%

    Tomorrow, 29 March, Wednesday

    Time Temperature Precipitation Wind Pressure Humidity
    00:00 +30°C° 0 mm 1 mps 757 mmHg 70%
    01:00 +30°C° 0 mm 1 mps 757 mmHg 70%
    02:00 +30°C° 0 mm 1 mps 757 mmHg 70%
    03:00 +30°C° 0 mm 1 mps 756 mmHg 71%
    04:00 +30°C° 0 mm 2 mps 756 mmHg 71%
    05:00 +30°C° 0 mm 2 mps 756 mmHg 71%
    06:00 +30°C° 0 mm 2 mps 756 mmHg 70%
    07:00 +30°C° 0 mm 2 mps 756 mmHg 69%
    08:00 +32°C° 0 mm 2 mps 757 mmHg 63%
    09:00 +35°C° 0 mm 2 mps 757 mmHg 56%
    10:00 +36°C° 0 mm 2 mps 757 mmHg 49%
    11:00 +38°C° 0 mm 3 mps 756 mmHg 45%
    12:00 +39°C° 0 mm 3 mps 756 mmHg 40%
    13:00 +41°C° 0 mm 4 mps 755 mmHg 36%
    14:00 +40°C° 0 mm 5 mps 754 mmHg 39%
    15:00 +40°C° 0 mm 6 mps 754 mmHg 42%
    16:00 +39°C° 0 mm 6 mps 753 mmHg 44%
    17:00 +36°C° 0.4 mm 6 mps 754 mmHg 50%
    18:00 +35°C° 0.4 mm 5 mps 754 mmHg 56%
    19:00 +33°C° 0.4 mm 5 mps 754 mmHg 62%
    20:00 +33°C° 1 mm 4 mps 755 mmHg 61%
    21:00 +33°C° 1 mm 4 mps 755 mmHg 61%
    22:00 +33°C° 1 mm 3 mps 756 mmHg 60%
    23:00 +33°C° 0.5 mm 3 mps 756 mmHg 61%

    Day after tomorrow, 30 March, Thursday

    Time Temperature Precipitation Wind Pressure Humidity
    00:00 +31°C° 0.5 mm 3 mps 756 mmHg 62%
    01:00 +31°C° 0.5 mm 3 mps 756 mmHg 63%
    02:00 +31°C° 0.4 mm 2 mps 756 mmHg 63%
    03:00 +31°C° 0.4 mm 2 mps 755 mmHg 64%
    04:00 +30°C° 0.4 mm 1 mps 755 mmHg 64%
    05:00 +30°C° 0.2 mm 1 mps 756 mmHg 65%
    06:00 +30°C° 0.2 mm 1 mps 756 mmHg 66%
    07:00 +30°C° 0.2 mm 2 mps 757 mmHg 67%
    08:00 +31°C° 0 mm 1 mps 757 mmHg 62%
    09:00 +33°C° 0 mm 1 mps 757 mmHg 57%
    10:00 +34°C° 0 mm 1 mps 758 mmHg 51%
    11:00 +37°C° 0 mm 2 mps 757 mmHg 47%
    12:00 +38°C° 0 mm 3 mps 756 mmHg 44%
    13:00 +40°C° 0 mm 4 mps 755 mmHg 40%
    14:00 +39°C° 0.4 mm 5 mps 755 mmHg 44%
    15:00 +37°C° 0.4 mm 5 mps 755 mmHg 48%
    16:00 +36°C° 0.4 mm 5 mps 755 mmHg 52%
    17:00 +34°C° 1.2 mm 4 mps 755 mmHg 59%
    18:00 +33°C° 1.2 mm 3 mps 756 mmHg 66%
    19:00 +30°C° 1.2 mm 2 mps 757 mmHg 73%
    20:00 +30°C° 1.3 mm 2 mps 757 mmHg 74%
    21:00 +30°C° 1.3 mm 1 mps 758 mmHg 75%
    22:00 +29°C° 1.3 mm 1 mps 759 mmHg 76%
    23:00 +29°C° 1 mm 1 mps 759 mmHg 75%

    31 March, Friday

    Time Temperature Precipitation Wind Pressure Humidity
    00:00 +30°C° 1 mm 1 mps 758 mmHg 75%
    01:00 +30°C° 1 mm 1 mps 758 mmHg 74%
    02:00 +29°C° 1.2 mm 1 mps 758 mmHg 74%
    03:00 +29°C° 1.2 mm 1 mps 757 mmHg 75%
    04:00 +29°C° 1.2 mm 1 mps 757 mmHg 75%
    05:00 +29°C° 0.3 mm 1 mps 757 mmHg 74%
    06:00 +29°C° 0.3 mm 1 mps 758 mmHg 74%
    07:00 +29°C° 0.3 mm 1 mps 758 mmHg 73%
    08:00 +31°C° 0 mm 1 mps 758 mmHg 68%
    09:00 +32°C° 0 mm 1 mps 758 mmHg 62%
    10:00 +33°C° 0 mm 1 mps 758 mmHg 57%
    11:00 +35°C° 0 mm 2 mps 758 mmHg 53%
    12:00 +37°C° 0 mm 2 mps 757 mmHg 48%
    13:00 +38°C° 0 mm 3 mps 756 mmHg 44%
    14:00 +37°C° 0.3 mm 4 mps 756 mmHg 46%
    15:00 +37°C° 0.3 mm 4 mps 756 mmHg 49%
    16:00 +36°C° 0.3 mm 5 mps 755 mmHg 52%
    17:00 +35°C° 0.4 mm 4 mps 756 mmHg 58%
    18:00 +33°C° 0.4 mm 4 mps 756 mmHg 64%
    19:00 +32°C° 0.4 mm 4 mps 757 mmHg 70%
    20:00 +31°C° 0.9 mm 3 mps 757 mmHg 70%
    21:00 +30°C° 0.9 mm 3 mps 758 mmHg 69%
    22:00 +30°C° 0.9 mm 3 mps 758 mmHg 69%
    23:00 +30°C° 1.4 mm 3 mps 758 mmHg 69%

    1 April, Saturday

    Time Temperature Precipitation Wind Pressure Humidity
    00:00 +30°C° 1.4 mm 3 mps 758 mmHg 69%
    01:00 +30°C° 1.4 mm 3 mps 757 mmHg 70%
    02:00 +30°C° 1.2 mm 2 mps 757 mmHg 70%
    03:00 +29°C° 1.2 mm 2 mps 757 mmHg 70%
    04:00 +29°C° 1.2 mm 2 mps 757 mmHg 70%
    05:00 +29°C° 0.6 mm 2 mps 757 mmHg 69%
    06:00 +29°C° 0.6 mm 2 mps 757 mmHg 69%
    07:00 +29°C° 0.6 mm 2 mps 758 mmHg 68%
    08:00 +31°C° 0.1 mm 2 mps 758 mmHg 61%
    09:00 +34°C° 0.1 mm 2 mps 758 mmHg 55%
    10:00 +35°C° 0.1 mm 2 mps 758 mmHg 49%
    11:00 +37°C° 0 mm 2 mps 757 mmHg 43%
    12:00 +39°C° 0 mm 3 mps 756 mmHg 38%
    13:00 +40°C° 0 mm 3 mps 756 mmHg 33%
    14:00 +41°C° 0 mm 4 mps 755 mmHg 34%
    15:00 +41°C° 0 mm 5 mps 755 mmHg 35%
    16:00 +41°C° 0 mm 6 mps 754 mmHg 36%
    17:00 +39°C° 0 mm 5 mps 755 mmHg 42%
    18:00 +35°C° 0 mm 4 mps 755 mmHg 49%
    19:00 +33°C° 0 mm 3 mps 756 mmHg 55%
    20:00 +33°C° 0 mm 3 mps 756 mmHg 55%
    21:00 +33°C° 0 mm 3 mps 757 mmHg 56%
    22:00 +31°C° 0 mm 3 mps 757 mmHg 56%
    23:00 +31°C° 0 mm 2 mps 757 mmHg 56%

    2 April, Sunday

    Time Temperature Precipitation Wind Pressure Humidity
    00:00 +31°C° 0 mm 2 mps 757 mmHg 57%
    01:00 +31°C° 0 mm 2 mps 757 mmHg 57%
    02:00 +31°C° 0 mm 1 mps 757 mmHg 58%
    03:00 +31°C° 0 mm 1 mps 757 mmHg 60%
    04:00 +30°C° 0 mm 1 mps 756 mmHg 61%
    05:00 +30°C° 0 mm 1 mps 757 mmHg 61%
    06:00 +30°C° 0 mm 1 mps 757 mmHg 60%
    07:00 +30°C° 0 mm 1 mps 757 mmHg 59%
    08:00 +32°C° 0 mm 1 mps 757 mmHg 52%
    09:00 +34°C° 0 mm 1 mps 757 mmHg 45%
    10:00 +37°C° 0 mm 2 mps 757 mmHg 39%
    11:00 +38°C° 0 mm 2 mps 757 mmHg 34%
    12:00 +40°C° 0 mm 3 mps 756 mmHg 30%
    13:00 +42°C° 0 mm 4 mps 755 mmHg 25%
    14:00 +42°C° 0 mm 5 mps 755 mmHg 27%
    15:00 +41°C° 0 mm 6 mps 755 mmHg 30%
    16:00 +40°C° 0 mm 6 mps 754 mmHg 32%
    17:00 +38°C° 0 mm 6 mps 754 mmHg 39%
    18:00 +35°C° 0 mm 5 mps 755 mmHg 46%
    19:00 +33°C° 0 mm 5 mps 755 mmHg 52%
    20:00 +33°C° 0 mm 4 mps 755 mmHg 53%
    21:00 +31°C° 0 mm 3 mps 756 mmHg 53%
    22:00 +31°C° 0 mm 2 mps 756 mmHg 54%
    23:00 +31°C° 0 mm 2 mps 756 mmHg 55%
    Show more